Zurück zum Katalog

CZ-6A DEB

AktivSSO
NORAD 54394·DEBRIS·🇨🇳 China

Gestartet Nov 11, 2022 von Taiyuan Satellite Launch Center

Loading…

Nächste Überflüge (nächste 24 Stunden)

TLE

AktuellSource: Space-Track

Epoche: Sep 14, 2026, 13:17 UTC

1 54394U 22151DS  26257.55369042  .00001104  00000-0  32350-3 0  9994
2 54394  98.5620 289.5176 0101668  79.9114 281.3527 14.42920303201489

Verfolge CZ-6A DEB in Echtzeit mit AllMySat

Download on the App Store